Dewpoint
70 71 75 75 74 74 74 74 74 74 74 74 73 73 73 73 73 73 73 73 73 73 72 72 73 73 73 73 72 73 75 74 75 75 75 74 73 74 74 73 74 67 74
68 70 75 76 75 74 74 74 74 74 74 74 74 74 74 73 72 73 73 73 73 73 73 73 73 73 74 73 73 74 75 74 74 74 74 73 73 74 74 74 75 73 73
67 70 72 76 75 75 75 74 74 74 74 74 74 74 73 73 73 73 73 73 73 74 74 73 73 74 74 74 74 74 74 74 74 73 72 67 69 73 74 74 74 74 74
66 68 70 76 76 74 75 75 74 74 74 74 74 73 73 73 73 73 73 73 73 74 74 73 73 74 74 74 74 74 74 73 73 72 68 65 64 73 73 73 74 72 73
66 68 72 76 75 74 74 74 74 74 74 74 74 73 73 74 74 74 74 74 74 74 74 74 73 73 74 74 73 74 75 75 74 71 68 68 64 71 73 72 73 72 72
64 65 74 75 74 74 74 74 75 74 72 74 74 74 73 74 74 74 74 74 74 73 74 73 73 73 73 73 73 72 74 74 73 67 68 69 68 74 73 71 72 73 73
62 65 70 76 74 74 75 75 74 74 72 73 74 74 74 73 74 73 73 74 74 73 73 73 73 73 73 73 73 73 74 73 68 68 67 65 68 74 72 72 73 73 72
61 64 68 75 74 74 75 75 74 74 73 72 72 73 74 74 74 73 73 72 72 71 72 73 73 73 73 73 72 73 73 73 68 68 67 66 73 74 73 73 73 73 72
61 63 65 68 74 74 75 75 75 75 74 75 73 73 72 72 72 72 72 73 73 72 73 72 71 73 73 73 73 72 72 72 70 68 62 67 73 74 73 73 74 72 72
61 61 64 66 70 68 71 74 75 74 74 73 74 73 73 72 72 72 73 73 71 71 71 72 72 73 73 73 73 73 73 73 68 69 65 67 73 73 73 73 74 73 71
62 61 62 65 68 70 69 71 74 75 74 75 74 74 74 74 73 73 73 73 72 72 72 72 72 72 73 74 73 73 72 65 63 65 66 72 71 73 72 73 74 73 72
62 61 64 66 66 71 67 72 73 72 73 73 74 73 74 71 72 74 73 71 70 70 72 73 73 73 73 69 69 74 67 62 63 63 66 71 71 74 73 73 74 73 73
60 62 63 66 69 68 68 68 68 70 70 71 74 75 73 75 73 70 70 69 71 71 68 69 69 68 66 67 73 66 64 65 63 61 65 72 71 72 73 73 73 75 74
59 61 62 64 69 69 68 68 74 75 70 68 73 73 75 73 70 70 65 64 65 63 64 67 65 67 68 69 68 69 68 65 64 63 65 73 72 72 73 73 74 73 74
59 61 62 64 71 71 73 70 71 71 70 66 68 69 72 68 68 66 66 64 65 64 63 64 65 66 68 67 65 67 68 69 70 66 66 74 73 73 72 72 73 74 72
59 61 61 64 69 71 71 74 72 70 68 73 72 74 73 68 67 66 66 66 65 65 65 66 66 68 70 65 65 67 68 69 72 72 68 67 74 74 73 73 73 74 73
59 61 63 64 66 71 72 73 72 70 69 68 69 74 74 72 70 74 75 71 66 67 69 68 68 67 67 71 67 66 70 72 72 70 73 71 69 74 74 73 74 74 75
61 64 67 65 66 68 70 71 70 69 69 68 68 73 71 73 74 75 74 76 69 67 68 69 71 67 66 66 66 67 73 71 67 71 72 72 71 68 73 74 74 75 73
64 67 69 70 69 69 72 71 71 71 70 69 69 72 73 73 73 74 76 75 74 68 75 71 68 71 72 70 70 69 71 73 70 68 68 71 69 69 65 73 74 74 73
64 67 69 69 71 72 71 72 70 68 69 69 70 70 74 74 72 72 75 73 74 71 72 75 70 75 72 70 71 69 71 70 70 70 69 70 69 68 67 68 70 70 74
64 66 69 70 72 72 71 70 68 68 70 73 73 74 74 73 72 73 72 72 73 71 70 73 74 72 74 76 73 72 74 71 69 69 67 70 69 68 67 70 68 66 69
63 66 69 71 72 73 71 73 71 70 69 70 71 73 73 73 74 73 73 72 75 75 72 73 74 74 73 72 70 71 67 71 69 68 67 70 69 71 71 70 69 69 68
61 63 67 70 72 73 73 71 71 72 72 71 71 71 72 74 74 74 74 74 75 76 72 75 73 73 69 71 71 70 67 66 67 71 68 68 70 69 70 70 70 70 71
59 61 65 69 71 72 73 71 72 68 68 68 69 70 71 73 73 73 74 74 75 76 76 75 73 72 73 70 71 70 71 71 65 66 70 72 72 71 71 72 68 69 70
59 60 62 68 71 71 73 73 71 71 68 68 68 69 71 74 74 72 73 74 74 73 76 75 74 73 72 73 73 69 71 71 68 66 64 68 70 69 68 70 68 68 69
60 61 62 69 72 72 73 73 73 71 70 67 68 66 67 71 71 71 71 73 74 74 74 75 75 74 75 73 70 72 69 70 69 66 68 69 66 68 70 70 66 67 68
Lifted_Index
-4 -4 -5 -5 -4 -4 -4 -4 -4 -4 -4 -4 -4 -4 -4 -4 -3 -4 -4 -4 -4 -4 -4 -4 -4 -4 -5 -5 -4 -5 -6 -6 -6 -6 -6 -6 -6 -6 -6 -6 -5 -5 -5
-4 -4 -5 -5 -5 -4 -4 -4 -4 -4 -4 -4 -4 -4 -4 -4 -4 -4 -4 -4 -4 -4 -4 -4 -4 -5 -5 -5 -5 -5 -6 -6 -6 -6 -6 -6 -6 -6 -6 -6 -6 -6 -6
-4 -4 -5 -5 -5 -4 -4 -4 -4 -4 -4 -4 -4 -4 -4 -4 -4 -4 -4 -4 -4 -5 -5 -5 -5 -5 -5 -5 -6 -6 -6 -6 -6 -6 -5 -5 -5 -6 -6 -6 -6 -6 -6
-4 -4 -5 -5 -5 -5 -4 -4 -4 -4 -4 -4 -4 -4 -4 -4 -4 -4 -4 -4 -5 -5 -5 -5 -5 -5 -5 -6 -6 -6 -6 -6 -6 -6 -5 -5 -5 -6 -6 -6 -6 -6 -6
-4 -4 -5 -5 -5 -4 -4 -5 -5 -4 -4 -5 -5 -5 -4 -4 -4 -5 -4 -5 -5 -5 -5 -5 -5 -5 -5 -5 -5 -6 -6 -6 -6 -5 -5 -5 -4 -5 -6 -6 -5 -5 -5
-4 -4 -5 -5 -5 -4 -5 -5 -5 -5 -4 -5 -5 -5 -5 -5 -5 -5 -5 -5 -5 -5 -5 -5 -5 -5 -5 -5 -5 -6 -6 -6 -6 -5 -5 -5 -5 -5 -6 -6 -6 -6 -6
-3 -4 -5 -5 -5 -5 -5 -6 -5 -5 -4 -4 -5 -5 -5 -5 -5 -5 -5 -5 -5 -5 -5 -5 -5 -5 -5 -5 -5 -6 -6 -6 -5 -5 -4 -4 -5 -6 -6 -6 -6 -6 -6
-3 -3 -4 -5 -5 -6 -6 -6 -6 -5 -5 -5 -5 -5 -5 -5 -5 -4 -4 -4 -4 -4 -5 -5 -5 -5 -5 -5 -5 -5 -6 -6 -5 -4 -4 -4 -5 -6 -6 -6 -6 -6 -6
-2 -3 -4 -5 -5 -6 -6 -6 -6 -6 -5 -5 -5 -4 -4 -4 -4 -4 -4 -4 -4 -4 -4 -5 -5 -5 -5 -5 -5 -5 -5 -5 -5 -4 -4 -4 -5 -6 -6 -7 -7 -6 -6
-2 -2 -3 -4 -5 -5 -5 -6 -6 -6 -6 -5 -5 -5 -4 -4 -4 -4 -4 -4 -4 -4 -4 -4 -5 -5 -5 -5 -5 -5 -5 -5 -5 -4 -4 -4 -5 -6 -6 -7 -7 -6 -6
-2 -2 -3 -4 -5 -5 -4 -5 -5 -6 -6 -5 -5 -5 -4 -4 -4 -4 -4 -4 -4 -4 -4 -4 -5 -5 -5 -5 -5 -5 -4 -3 -3 -4 -4 -3 -4 -5 -6 -6 -7 -6 -6
-2 -2 -3 -4 -4 -5 -4 -4 -5 -5 -5 -5 -5 -4 -4 -4 -4 -3 -3 -2 -2 -3 -3 -4 -4 -4 -4 -4 -4 -4 -3 -2 -2 -3 -3 -3 -4 -5 -5 -6 -6 -6 -6
-2 -2 -2 -3 -4 -4 -4 -4 -4 -5 -4 -4 -4 -4 -4 -3 -3 -2 -2 -1 -1 -1 -2 -3 -3 -3 -3 -3 -3 -3 -3 -2 -2 -2 -2 -3 -3 -4 -5 -6 -6 -7 -7
-2 -2 -2 -3 -4 -4 -4 -4 -4 -4 -4 -4 -4 -4 -3 -3 -2 -1 -0 0 0 0 -1 -1 -2 -2 -2 -2 -3 -3 -3 -3 -2 -2 -2 -3 -4 -4 -5 -5 -6 -6 -6
-2 -2 -2 -3 -4 -5 -5 -5 -5 -4 -4 -4 -4 -3 -3 -2 -2 -1 -1 -0 0 0 -0 -1 -1 -2 -2 -2 -2 -3 -3 -3 -3 -3 -3 -4 -4 -4 -5 -5 -6 -6 -6
-2 -2 -2 -2 -3 -5 -5 -5 -5 -4 -4 -4 -4 -4 -4 -3 -2 -2 -2 -1 -1 -1 -1 -1 -1 -2 -2 -2 -2 -2 -3 -3 -3 -3 -3 -3 -4 -5 -5 -5 -5 -6 -6
-2 -2 -2 -3 -3 -4 -5 -5 -5 -5 -4 -4 -4 -4 -4 -3 -3 -3 -3 -3 -2 -2 -2 -2 -2 -2 -2 -2 -2 -2 -3 -3 -2 -2 -2 -3 -3 -4 -5 -5 -5 -6 -6
-2 -3 -3 -3 -4 -4 -5 -5 -5 -5 -4 -4 -4 -4 -4 -3 -3 -3 -3 -3 -3 -2 -2 -2 -2 -2 -2 -2 -2 -2 -3 -2 -2 -1 -2 -2 -3 -3 -4 -5 -5 -5 -6
-3 -4 -4 -4 -4 -4 -4 -4 -4 -4 -4 -4 -4 -4 -4 -3 -2 -3 -3 -3 -3 -3 -3 -3 -3 -3 -2 -2 -2 -3 -3 -2 -1 -1 -2 -2 -2 -3 -3 -4 -5 -5 -5
-3 -4 -5 -5 -5 -4 -4 -4 -4 -3 -3 -3 -4 -4 -4 -3 -2 -2 -3 -3 -4 -3 -3 -3 -3 -3 -3 -3 -3 -3 -3 -2 -2 -1 -2 -2 -2 -2 -3 -4 -4 -4 -5
-3 -4 -4 -5 -5 -5 -4 -4 -4 -3 -4 -4 -4 -4 -4 -3 -3 -2 -3 -3 -4 -4 -4 -4 -4 -4 -4 -3 -3 -3 -3 -3 -2 -1 -1 -2 -2 -2 -3 -3 -4 -4 -4
-3 -4 -5 -5 -5 -5 -5 -4 -4 -4 -4 -4 -4 -4 -4 -4 -4 -4 -4 -4 -4 -4 -4 -4 -4 -4 -4 -3 -3 -3 -3 -2 -2 -1 -1 -2 -2 -3 -3 -3 -3 -3 -4
-4 -4 -5 -5 -5 -5 -5 -5 -5 -5 -5 -5 -4 -4 -4 -4 -4 -4 -4 -5 -5 -5 -5 -5 -5 -4 -4 -3 -3 -3 -2 -2 -1 -1 -2 -2 -2 -3 -3 -2 -3 -3 -3
-4 -4 -5 -5 -5 -5 -5 -5 -5 -5 -5 -4 -4 -3 -3 -4 -4 -4 -5 -5 -5 -6 -5 -5 -5 -5 -4 -4 -3 -2 -2 -2 -1 -1 -1 -2 -2 -2 -2 -2 -2 -3 -3
-5 -4 -5 -5 -5 -5 -5 -5 -5 -5 -4 -4 -3 -2 -2 -3 -4 -4 -5 -5 -6 -6 -6 -6 -5 -5 -4 -4 -3 -2 -2 -2 -1 -1 -1 -1 -1 -1 -2 -2 -2 -2 -2
-5 -5 -5 -5 -5 -5 -5 -6 -5 -4 -3 -3 -2 -1 -1 -2 -3 -4 -4 -5 -6 -6 -6 -6 -5 -5 -5 -4 -3 -3 -2 -2 -2 -1 -1 -1 -1 -1 -1 -2 -2 -2 -2